Other Surface Observations
Issued by NWS

Home | Current Version | Previous Version | Text Only | Print | Product List | Glossary On
Versions: 1 2 3 4 5 6 7 8 9 10 11 12 13 14 15 16 17 18 19 20 21 22 23 24 25 26 27 28 29 30 31 32 33 34 35 36 37 38 39 40 41 42 43 44 45 46 47 48 49 50
000
SXUS52 KTAE 300318
OSOTAE
OSOTAE
North Florida/South Alabama/Southwest Georgia Weather Roundup
National Weather Service Tallahassee Florida
1000 PM EST THU JAN 29 2015

Note: "fair" indicates few or no clouds below 12,000 feet with no
significant weather and/or obstructions to visibility.

!FLZ017-115-028-034-025-300400
...North Florida...

CITY           SKY/WX    TMP DP  RH WIND       PRES   REMARKS
TALLAHASSEE    MOCLDY    50  40  68 SW3       30.22F
APALACHICOLA   PTCLDY    51  44  77 S6        30.23F
PERRY          PTCLDY    46  45  98 S3        30.24F
CROSS CITY       N/A     48  45  89 CALM      30.24F
JACKSONVILLE   PTCLDY    50  49  96 SW3       30.21S
$$

!FLZ112-006-005-002-011-300400
...Florida Panhandle...

CITY           SKY/WX    TMP DP  RH WIND       PRES   REMARKS
MARIANNA       MOCLDY    52  48  86 S7        30.20S
BONIFAY        FAIR      51  48  89 S3        30.22R
PANAMA CITY NW FAIR      54  51  90 SE3       30.21R
TYNDALL AFB    PTCLDY    56  53  88 S10       30.22S
TYND DRONE APT FAIR      55  52  90 S7        30.21S
DE FUNIAK SPR  FAIR      52  52  97 SW3       30.21S
EGLIN AFB      PTCLDY    61  55  82 SW5       30.20S
DESTIN         CLEAR     64  57  78 VRB6      30.21S
HURLBURT       CLEAR     63  55  75 SW6       30.20S
CRESTVIEW      MOCLDY    50  48  93 CALM      30.21F FOG
PENSACOLA      PTCLDY    61  56  83 SW9       30.20F
$$

!ALZ063-066-300400
...South Alabama...

CITY           SKY/WX    TMP DP  RH WIND       PRES   REMARKS
DOTHAN         MOCLDY    55  50  83 SW12      30.22R
OZARK CAIRNS   CLOUDY    55  49  83 S7        30.19S
FT RUCKER HELI MOCLDY    56  51  84 SW7       30.18R
RUCKER HELI 3  MOCLDY    56  52  86 SW8       30.21R
RUCKER HELI 2  FAIR      55  50  83 SW6       30.19S
FLORALA APT    MOCLDY    57  53  86 SW6       30.21S
ANDALUSIA      CLOUDY    61  52  72 W3        30.19R
TROY           PTCLDY    57  50  77 SW9       30.17F
EUFALA         FAIR      58  50  75 SW5       30.16S
MOBILE         PTCLDY    57  54  89 SW6       30.20S
$$

!GAZ120>161-300400
...Southwest and South Central Georgia...

CITY           SKY/WX    TMP DP  RH WIND       PRES   REMARKS
THOMASVILLE    FAIR      50  37  62 SW7       30.22S
BAINBRIDGE     MOCLDY    54  48  82 S3        30.21R
MOODY AFB      PTCLDY    53  32  44 SW7       30.19F
VALDOSTA       PTCLDY    51  36  56 VRB5      30.20F
MOULTRIE       PTCLDY    52  32  46 CALM      30.21S
BLAKELY        MOCLDY    59  52  77 SW6       30.20S
ALBANY         MOCLDY    53  39  59 SW5       30.21R
TIFTON         FAIR      52  27  37 SW6       30.19R
FITZGERALD     FAIR      55  27  33 SW3       30.20S
CORDELE        FAIR      56  35  45 SW7       30.19R
AMERICUS       FAIR      54  41  62 SW6       30.19R
HOMERVILLE     FAIR      54  41  62 SW7       30.19F
$$

!GMZ750-755-770-775-300400
...Coastal and Buoy Obs...

STATION/POSITION TIME  TEMP    WIND        PRES    VSBY  WAVE
                       AIR SEA DIR/SP/G                  HT/PER
                 (UTC) (F)     (DEG/KT/KT) (MB)    (MI)  (FT/S)
KEATON BEACH     0300   56     240/  8/  9 1024.3F
CEDAR KEY        0300   56     290/  4/  5 1024.6F
C TOWER          0300   61     210/ 10/ 11 1023.9F
APALACHICOLA BUO 0300   64 68  210/  8/ 10 1024.4F         1/ 4
PANAMA CITY BUOY 0239   66 70  230/ 10/ 12 1024.5S         2/ 6
MOBILE BUOY      0241   68 69  210/ 12/ 14 1023.8S         2/ 5
ORANGE BCH AL BU 0300   65 63  200/ 10/ 12 1022.3R         2/ 5
$$



USA.gov is the U.S. government's official web portal to all federal, state and local government web resources and services.